owner,sensor,date,latitude,longitude,air_pressure(mBar),qcFlag 
COMPS,ioos:station:USF.COMPS:FHP:1,2018-01-01T00:00:00Z,28.1530,-82.8010,1019.97,1111122 
COMPS,ioos:station:USF.COMPS:FHP:1,2018-01-01T00:06:00Z,28.1530,-82.8010,1019.9,1111122 
COMPS,ioos:station:USF.COMPS:FHP:1,2018-01-01T00:12:00Z,28.1530,-82.8010,1019.92,1111122 
COMPS,ioos:station:USF.COMPS:FHP:1,2018-01-01T00:18:00Z,28.1530,-82.8010,1019.94,1111122 
COMPS,ioos:station:USF.COMPS:FHP:1,2018-01-01T00:24:00Z,28.1530,-82.8010,1020.02,1111122 
COMPS,ioos:station:USF.COMPS:FHP:1,2018-01-01T00:30:00Z,28.1530,-82.8010,1020.17,1111122 
COMPS,ioos:station:USF.COMPS:FHP:1,2018-01-01T00:36:00Z,28.1530,-82.8010,1020.4,1111122 
COMPS,ioos:station:USF.COMPS:FHP:1,2018-01-01T00:42:00Z,28.1530,-82.8010,1020.37,1111122 
COMPS,ioos:station:USF.COMPS:FHP:1,2018-01-01T00:48:00Z,28.1530,-82.8010,1020.32,1111122 
COMPS,ioos:station:USF.COMPS:FHP:1,2018-01-01T00:54:00Z,28.1530,-82.8010,1020.42,1111122 
COMPS,ioos:station:USF.COMPS:FHP:1,2018-01-01T01:00:00Z,28.1530,-82.8010,1020.57,1111122 
COMPS,ioos:station:USF.COMPS:FHP:1,2018-01-01T01:06:00Z,28.1530,-82.8010,1020.41,1111122 
COMPS,ioos:station:USF.COMPS:FHP:1,2018-01-01T01:12:00Z,28.1530,-82.8010,1020.29,1111122 
COMPS,ioos:station:USF.COMPS:FHP:1,2018-01-01T01:18:00Z,28.1530,-82.8010,1020.21,1111122 
COMPS,ioos:station:USF.COMPS:FHP:1,2018-01-01T01:24:00Z,28.1530,-82.8010,1020.09,1111122 
COMPS,ioos:station:USF.COMPS:FHP:1,2018-01-01T01:30:00Z,28.1530,-82.8010,1020.14,1111122 
COMPS,ioos:station:USF.COMPS:FHP:1,2018-01-01T01:36:00Z,28.1530,-82.8010,1020.08,1111122 
COMPS,ioos:station:USF.COMPS:FHP:1,2018-01-01T01:42:00Z,28.1530,-82.8010,1020.01,1111122 
COMPS,ioos:station:USF.COMPS:FHP:1,2018-01-01T01:48:00Z,28.1530,-82.8010,1019.98,1111122 
COMPS,ioos:station:USF.COMPS:FHP:1,2018-01-01T01:54:00Z,28.1530,-82.8010,1020.13,1111122 
COMPS,ioos:station:USF.COMPS:FHP:1,2018-01-01T02:00:00Z,28.1530,-82.8010,1020.21,1111122 
COMPS,ioos:station:USF.COMPS:FHP:1,2018-01-01T02:06:00Z,28.1530,-82.8010,1020.28,1111122 
COMPS,ioos:station:USF.COMPS:FHP:1,2018-01-01T02:12:00Z,28.1530,-82.8010,1020.25,1111122 
COMPS,ioos:station:USF.COMPS:FHP:1,2018-01-01T02:18:00Z,28.1530,-82.8010,1020.04,1111122 
COMPS,ioos:station:USF.COMPS:FHP:1,2018-01-01T02:24:00Z,28.1530,-82.8010,1020.04,1111122 
COMPS,ioos:station:USF.COMPS:FHP:1,2018-01-01T02:30:00Z,28.1530,-82.8010,1020.1,1111122 
COMPS,ioos:station:USF.COMPS:FHP:1,2018-01-01T02:36:00Z,28.1530,-82.8010,1020.3,1111122 
COMPS,ioos:station:USF.COMPS:FHP:1,2018-01-01T02:42:00Z,28.1530,-82.8010,1020.41,1111122 
COMPS,ioos:station:USF.COMPS:FHP:1,2018-01-01T02:48:00Z,28.1530,-82.8010,1020.32,1111122 
COMPS,ioos:station:USF.COMPS:FHP:1,2018-01-01T02:54:00Z,28.1530,-82.8010,1020.33,1111122 
COMPS,ioos:station:USF.COMPS:FHP:1,2018-01-01T03:00:00Z,28.1530,-82.8010,1020.5,1111122 
COMPS,ioos:station:USF.COMPS:FHP:1,2018-01-01T03:06:00Z,28.1530,-82.8010,1020.34,1111122 
COMPS,ioos:station:USF.COMPS:FHP:1,2018-01-01T03:12:00Z,28.1530,-82.8010,1020.42,1111122 
COMPS,ioos:station:USF.COMPS:FHP:1,2018-01-01T03:18:00Z,28.1530,-82.8010,1020.4,1111122 
COMPS,ioos:station:USF.COMPS:FHP:1,2018-01-01T03:24:00Z,28.1530,-82.8010,1020.22,1111122 
COMPS,ioos:station:USF.COMPS:FHP:1,2018-01-01T03:30:00Z,28.1530,-82.8010,1020.17,1111122 
COMPS,ioos:station:USF.COMPS:FHP:1,2018-01-01T03:36:00Z,28.1530,-82.8010,1020.13,1111122 
COMPS,ioos:station:USF.COMPS:FHP:1,2018-01-01T03:42:00Z,28.1530,-82.8010,1020.09,1111122 
COMPS,ioos:station:USF.COMPS:FHP:1,2018-01-01T03:48:00Z,28.1530,-82.8010,1020.02,1111122 
COMPS,ioos:station:USF.COMPS:FHP:1,2018-01-01T03:54:00Z,28.1530,-82.8010,1020.0,1111122 
COMPS,ioos:station:USF.COMPS:FHP:1,2018-01-01T04:00:00Z,28.1530,-82.8010,1020.06,1111122 
COMPS,ioos:station:USF.COMPS:FHP:1,2018-01-01T04:06:00Z,28.1530,-82.8010,1008.85,1111122 
COMPS,ioos:station:USF.COMPS:FHP:1,2018-01-01T04:12:00Z,28.1530,-82.8010,1020.22,1111122 
COMPS,ioos:station:USF.COMPS:FHP:1,2018-01-01T04:18:00Z,28.1530,-82.8010,1020.12,1111122 
COMPS,ioos:station:USF.COMPS:FHP:1,2018-01-01T04:24:00Z,28.1530,-82.8010,1019.96,1111122 
COMPS,ioos:station:USF.COMPS:FHP:1,2018-01-01T04:30:00Z,28.1530,-82.8010,1019.84,1111122 
COMPS,ioos:station:USF.COMPS:FHP:1,2018-01-01T04:36:00Z,28.1530,-82.8010,1019.96,1111122 
COMPS,ioos:station:USF.COMPS:FHP:1,2018-01-01T04:42:00Z,28.1530,-82.8010,1019.96,1111122 
COMPS,ioos:station:USF.COMPS:FHP:1,2018-01-01T04:48:00Z,28.1530,-82.8010,1019.93,1111122 
COMPS,ioos:station:USF.COMPS:FHP:1,2018-01-01T04:54:00Z,28.1530,-82.8010,1019.9,1111122 
COMPS,ioos:station:USF.COMPS:FHP:1,2018-01-01T05:00:00Z,28.1530,-82.8010,1019.88,1111122 
COMPS,ioos:station:USF.COMPS:FHP:1,2018-01-01T05:06:00Z,28.1530,-82.8010,1019.73,1111122 
COMPS,ioos:station:USF.COMPS:FHP:1,2018-01-01T05:12:00Z,28.1530,-82.8010,1019.69,1111122 
COMPS,ioos:station:USF.COMPS:FHP:1,2018-01-01T05:18:00Z,28.1530,-82.8010,1019.78,1111122 
COMPS,ioos:station:USF.COMPS:FHP:1,2018-01-01T05:24:00Z,28.1530,-82.8010,1019.78,1111122 
COMPS,ioos:station:USF.COMPS:FHP:1,2018-01-01T05:30:00Z,28.1530,-82.8010,1019.61,1111122 
COMPS,ioos:station:USF.COMPS:FHP:1,2018-01-01T05:36:00Z,28.1530,-82.8010,1019.64,1111122 
COMPS,ioos:station:USF.COMPS:FHP:1,2018-01-01T05:42:00Z,28.1530,-82.8010,1019.57,1111122 
COMPS,ioos:station:USF.COMPS:FHP:1,2018-01-01T05:48:00Z,28.1530,-82.8010,1019.37,1111122 
COMPS,ioos:station:USF.COMPS:FHP:1,2018-01-01T05:54:00Z,28.1530,-82.8010,1019.34,1111122 
COMPS,ioos:station:USF.COMPS:FHP:1,2018-01-01T06:00:00Z,28.1530,-82.8010,1019.29,1111122 
COMPS,ioos:station:USF.COMPS:FHP:1,2018-01-01T06:06:00Z,28.1530,-82.8010,1019.26,1111122 
COMPS,ioos:station:USF.COMPS:FHP:1,2018-01-01T06:12:00Z,28.1530,-82.8010,1019.18,1111122 
COMPS,ioos:station:USF.COMPS:FHP:1,2018-01-01T06:18:00Z,28.1530,-82.8010,1019.18,1111122 
COMPS,ioos:station:USF.COMPS:FHP:1,2018-01-01T06:24:00Z,28.1530,-82.8010,1018.97,1111122 
COMPS,ioos:station:USF.COMPS:FHP:1,2018-01-01T06:30:00Z,28.1530,-82.8010,1018.97,1111122 
COMPS,ioos:station:USF.COMPS:FHP:1,2018-01-01T06:36:00Z,28.1530,-82.8010,1018.94,1111122 
COMPS,ioos:station:USF.COMPS:FHP:1,2018-01-01T06:42:00Z,28.1530,-82.8010,1018.9,1111122 
COMPS,ioos:station:USF.COMPS:FHP:1,2018-01-01T06:48:00Z,28.1530,-82.8010,1018.97,1111122 
COMPS,ioos:station:USF.COMPS:FHP:1,2018-01-01T06:54:00Z,28.1530,-82.8010,1018.93,1111122 
COMPS,ioos:station:USF.COMPS:FHP:1,2018-01-01T07:00:00Z,28.1530,-82.8010,1019.0,1111122 
COMPS,ioos:station:USF.COMPS:FHP:1,2018-01-01T07:06:00Z,28.1530,-82.8010,1019.04,1111122 
COMPS,ioos:station:USF.COMPS:FHP:1,2018-01-01T07:12:00Z,28.1530,-82.8010,1018.93,1111122 
COMPS,ioos:station:USF.COMPS:FHP:1,2018-01-01T07:18:00Z,28.1530,-82.8010,1018.85,1111122 
COMPS,ioos:station:USF.COMPS:FHP:1,2018-01-01T07:24:00Z,28.1530,-82.8010,1018.82,1111122 
COMPS,ioos:station:USF.COMPS:FHP:1,2018-01-01T07:30:00Z,28.1530,-82.8010,1018.81,1111122 
COMPS,ioos:station:USF.COMPS:FHP:1,2018-01-01T07:36:00Z,28.1530,-82.8010,1018.7,1111122 
COMPS,ioos:station:USF.COMPS:FHP:1,2018-01-01T07:42:00Z,28.1530,-82.8010,1018.61,1111122 
COMPS,ioos:station:USF.COMPS:FHP:1,2018-01-01T07:48:00Z,28.1530,-82.8010,1018.62,1111122 
COMPS,ioos:station:USF.COMPS:FHP:1,2018-01-01T07:54:00Z,28.1530,-82.8010,1018.57,1111122 
COMPS,ioos:station:USF.COMPS:FHP:1,2018-01-01T08:00:00Z,28.1530,-82.8010,1018.64,1111122 
COMPS,ioos:station:USF.COMPS:FHP:1,2018-01-01T08:06:00Z,28.1530,-82.8010,1018.72,1111122 
COMPS,ioos:station:USF.COMPS:FHP:1,2018-01-01T08:12:00Z,28.1530,-82.8010,1018.6,1111122 
COMPS,ioos:station:USF.COMPS:FHP:1,2018-01-01T08:18:00Z,28.1530,-82.8010,1018.44,1111122 
COMPS,ioos:station:USF.COMPS:FHP:1,2018-01-01T08:24:00Z,28.1530,-82.8010,1018.36,1111122 
COMPS,ioos:station:USF.COMPS:FHP:1,2018-01-01T08:30:00Z,28.1530,-82.8010,1018.28,1111122 
COMPS,ioos:station:USF.COMPS:FHP:1,2018-01-01T08:36:00Z,28.1530,-82.8010,1018.21,1111122 
COMPS,ioos:station:USF.COMPS:FHP:1,2018-01-01T08:42:00Z,28.1530,-82.8010,1018.21,1111122 
COMPS,ioos:station:USF.COMPS:FHP:1,2018-01-01T08:48:00Z,28.1530,-82.8010,1018.16,1111122 
COMPS,ioos:station:USF.COMPS:FHP:1,2018-01-01T08:54:00Z,28.1530,-82.8010,1018.16,1111122 
COMPS,ioos:station:USF.COMPS:FHP:1,2018-01-01T09:00:00Z,28.1530,-82.8010,1018.18,1111122 
COMPS,ioos:station:USF.COMPS:FHP:1,2018-01-01T09:06:00Z,28.1530,-82.8010,1018.18,1111122 
COMPS,ioos:station:USF.COMPS:FHP:1,2018-01-01T09:12:00Z,28.1530,-82.8010,1018.18,1111122 
COMPS,ioos:station:USF.COMPS:FHP:1,2018-01-01T09:18:00Z,28.1530,-82.8010,1018.18,1111122 
COMPS,ioos:station:USF.COMPS:FHP:1,2018-01-01T09:24:00Z,28.1530,-82.8010,1018.13,1111122 
COMPS,ioos:station:USF.COMPS:FHP:1,2018-01-01T09:30:00Z,28.1530,-82.8010,1018.12,1111122 
COMPS,ioos:station:USF.COMPS:FHP:1,2018-01-01T09:36:00Z,28.1530,-82.8010,1018.04,1111122 
COMPS,ioos:station:USF.COMPS:FHP:1,2018-01-01T09:42:00Z,28.1530,-82.8010,1017.8,1111122 
COMPS,ioos:station:USF.COMPS:FHP:1,2018-01-01T09:48:00Z,28.1530,-82.8010,1017.64,1111122 
COMPS,ioos:station:USF.COMPS:FHP:1,2018-01-01T09:54:00Z,28.1530,-82.8010,1017.69,1111122 
COMPS,ioos:station:USF.COMPS:FHP:1,2018-01-01T10:00:00Z,28.1530,-82.8010,1017.66,1111122 
COMPS,ioos:station:USF.COMPS:FHP:1,2018-01-01T10:06:00Z,28.1530,-82.8010,1017.73,1111122 
COMPS,ioos:station:USF.COMPS:FHP:1,2018-01-01T10:12:00Z,28.1530,-82.8010,1017.73,1111122 
COMPS,ioos:station:USF.COMPS:FHP:1,2018-01-01T10:18:00Z,28.1530,-82.8010,1017.8,1111122 
COMPS,ioos:station:USF.COMPS:FHP:1,2018-01-01T10:24:00Z,28.1530,-82.8010,1017.73,1111122 
COMPS,ioos:station:USF.COMPS:FHP:1,2018-01-01T10:30:00Z,28.1530,-82.8010,1017.7,1111122 
COMPS,ioos:station:USF.COMPS:FHP:1,2018-01-01T10:36:00Z,28.1530,-82.8010,1017.68,1111122 
COMPS,ioos:station:USF.COMPS:FHP:1,2018-01-01T10:42:00Z,28.1530,-82.8010,1017.9,1111122 
COMPS,ioos:station:USF.COMPS:FHP:1,2018-01-01T10:48:00Z,28.1530,-82.8010,1018.16,1111122 
COMPS,ioos:station:USF.COMPS:FHP:1,2018-01-01T10:54:00Z,28.1530,-82.8010,1018.28,1111122 
COMPS,ioos:station:USF.COMPS:FHP:1,2018-01-01T11:00:00Z,28.1530,-82.8010,1018.29,1111122 
COMPS,ioos:station:USF.COMPS:FHP:1,2018-01-01T11:06:00Z,28.1530,-82.8010,1018.33,1111122 
COMPS,ioos:station:USF.COMPS:FHP:1,2018-01-01T11:12:00Z,28.1530,-82.8010,1018.46,1111122 
COMPS,ioos:station:USF.COMPS:FHP:1,2018-01-01T11:18:00Z,28.1530,-82.8010,1018.48,1111122 
COMPS,ioos:station:USF.COMPS:FHP:1,2018-01-01T11:24:00Z,28.1530,-82.8010,1018.57,1111122 
COMPS,ioos:station:USF.COMPS:FHP:1,2018-01-01T11:30:00Z,28.1530,-82.8010,1018.62,1111122 
COMPS,ioos:station:USF.COMPS:FHP:1,2018-01-01T11:36:00Z,28.1530,-82.8010,1018.5,1111122 
COMPS,ioos:station:USF.COMPS:FHP:1,2018-01-01T11:42:00Z,28.1530,-82.8010,1018.61,1111122 
COMPS,ioos:station:USF.COMPS:FHP:1,2018-01-01T11:48:00Z,28.1530,-82.8010,1018.68,1111122 
COMPS,ioos:station:USF.COMPS:FHP:1,2018-01-01T11:54:00Z,28.1530,-82.8010,1018.77,1111122 
COMPS,ioos:station:USF.COMPS:FHP:1,2018-01-01T12:00:00Z,28.1530,-82.8010,1018.94,1111122 
COMPS,ioos:station:USF.COMPS:FHP:1,2018-01-01T12:06:00Z,28.1530,-82.8010,1019.14,1111122 
COMPS,ioos:station:USF.COMPS:FHP:1,2018-01-01T12:12:00Z,28.1530,-82.8010,1019.2,1111122 
COMPS,ioos:station:USF.COMPS:FHP:1,2018-01-01T12:18:00Z,28.1530,-82.8010,1019.29,1111122 
COMPS,ioos:station:USF.COMPS:FHP:1,2018-01-01T12:24:00Z,28.1530,-82.8010,1019.28,1111122 
COMPS,ioos:station:USF.COMPS:FHP:1,2018-01-01T12:30:00Z,28.1530,-82.8010,1019.21,1111122 
COMPS,ioos:station:USF.COMPS:FHP:1,2018-01-01T12:36:00Z,28.1530,-82.8010,1019.2,1111122 
COMPS,ioos:station:USF.COMPS:FHP:1,2018-01-01T12:42:00Z,28.1530,-82.8010,1019.22,1111122 
COMPS,ioos:station:USF.COMPS:FHP:1,2018-01-01T12:48:00Z,28.1530,-82.8010,1019.42,1111122 
COMPS,ioos:station:USF.COMPS:FHP:1,2018-01-01T12:54:00Z,28.1530,-82.8010,1019.65,1111122 
COMPS,ioos:station:USF.COMPS:FHP:1,2018-01-01T13:00:00Z,28.1530,-82.8010,1019.84,1111122 
COMPS,ioos:station:USF.COMPS:FHP:1,2018-01-01T13:06:00Z,28.1530,-82.8010,1019.85,1111122 
COMPS,ioos:station:USF.COMPS:FHP:1,2018-01-01T13:12:00Z,28.1530,-82.8010,1019.92,1111122 
COMPS,ioos:station:USF.COMPS:FHP:1,2018-01-01T13:18:00Z,28.1530,-82.8010,1020.04,1111122 
COMPS,ioos:station:USF.COMPS:FHP:1,2018-01-01T13:24:00Z,28.1530,-82.8010,1020.09,1111122 
COMPS,ioos:station:USF.COMPS:FHP:1,2018-01-01T13:30:00Z,28.1530,-82.8010,1020.36,1111122 
COMPS,ioos:station:USF.COMPS:FHP:1,2018-01-01T13:36:00Z,28.1530,-82.8010,1020.41,1111122 
COMPS,ioos:station:USF.COMPS:FHP:1,2018-01-01T13:42:00Z,28.1530,-82.8010,1020.46,1111122 
COMPS,ioos:station:USF.COMPS:FHP:1,2018-01-01T13:48:00Z,28.1530,-82.8010,1020.53,1111122 
COMPS,ioos:station:USF.COMPS:FHP:1,2018-01-01T13:54:00Z,28.1530,-82.8010,1020.77,1111122 
COMPS,ioos:station:USF.COMPS:FHP:1,2018-01-01T14:00:00Z,28.1530,-82.8010,1021.04,1111122 
COMPS,ioos:station:USF.COMPS:FHP:1,2018-01-01T14:06:00Z,28.1530,-82.8010,1021.21,1111122 
COMPS,ioos:station:USF.COMPS:FHP:1,2018-01-01T14:12:00Z,28.1530,-82.8010,1021.2,1111122 
COMPS,ioos:station:USF.COMPS:FHP:1,2018-01-01T14:18:00Z,28.1530,-82.8010,1021.3,1111122 
COMPS,ioos:station:USF.COMPS:FHP:1,2018-01-01T14:24:00Z,28.1530,-82.8010,1021.38,1111122 
COMPS,ioos:station:USF.COMPS:FHP:1,2018-01-01T14:30:00Z,28.1530,-82.8010,1021.4,1111122 
COMPS,ioos:station:USF.COMPS:FHP:1,2018-01-01T14:36:00Z,28.1530,-82.8010,1021.69,1111122 
COMPS,ioos:station:USF.COMPS:FHP:1,2018-01-01T14:42:00Z,28.1530,-82.8010,1021.81,1111122 
COMPS,ioos:station:USF.COMPS:FHP:1,2018-01-01T14:48:00Z,28.1530,-82.8010,1022.08,1111122 
COMPS,ioos:station:USF.COMPS:FHP:1,2018-01-01T14:54:00Z,28.1530,-82.8010,1022.33,1111122 
COMPS,ioos:station:USF.COMPS:FHP:1,2018-01-01T15:00:00Z,28.1530,-82.8010,1022.38,1111122 
COMPS,ioos:station:USF.COMPS:FHP:1,2018-01-01T15:06:00Z,28.1530,-82.8010,1022.41,1111122 
COMPS,ioos:station:USF.COMPS:FHP:1,2018-01-01T15:12:00Z,28.1530,-82.8010,1022.42,1111122 
COMPS,ioos:station:USF.COMPS:FHP:1,2018-01-01T15:18:00Z,28.1530,-82.8010,1022.57,1111122 
COMPS,ioos:station:USF.COMPS:FHP:1,2018-01-01T15:24:00Z,28.1530,-82.8010,1022.8,1111122 
COMPS,ioos:station:USF.COMPS:FHP:1,2018-01-01T15:30:00Z,28.1530,-82.8010,1022.97,1111122 
COMPS,ioos:station:USF.COMPS:FHP:1,2018-01-01T15:36:00Z,28.1530,-82.8010,1023.05,1111122 
COMPS,ioos:station:USF.COMPS:FHP:1,2018-01-01T15:42:00Z,28.1530,-82.8010,1022.93,1111122 
COMPS,ioos:station:USF.COMPS:FHP:1,2018-01-01T15:48:00Z,28.1530,-82.8010,1023.04,1111122 
COMPS,ioos:station:USF.COMPS:FHP:1,2018-01-01T15:54:00Z,28.1530,-82.8010,1023.17,1111122 
COMPS,ioos:station:USF.COMPS:FHP:1,2018-01-01T16:00:00Z,28.1530,-82.8010,1023.14,1111122 
COMPS,ioos:station:USF.COMPS:FHP:1,2018-01-01T16:06:00Z,28.1530,-82.8010,1023.08,1111122 
COMPS,ioos:station:USF.COMPS:FHP:1,2018-01-01T16:12:00Z,28.1530,-82.8010,1023.02,1111122 
COMPS,ioos:station:USF.COMPS:FHP:1,2018-01-01T16:18:00Z,28.1530,-82.8010,1022.97,1111122 
COMPS,ioos:station:USF.COMPS:FHP:1,2018-01-01T16:24:00Z,28.1530,-82.8010,1022.94,1111122 
COMPS,ioos:station:USF.COMPS:FHP:1,2018-01-01T16:30:00Z,28.1530,-82.8010,1022.92,1111122 
COMPS,ioos:station:USF.COMPS:FHP:1,2018-01-01T16:36:00Z,28.1530,-82.8010,1022.8,1111122 
COMPS,ioos:station:USF.COMPS:FHP:1,2018-01-01T16:42:00Z,28.1530,-82.8010,1022.76,1111122 
COMPS,ioos:station:USF.COMPS:FHP:1,2018-01-01T16:48:00Z,28.1530,-82.8010,1022.81,1111122 
COMPS,ioos:station:USF.COMPS:FHP:1,2018-01-01T16:54:00Z,28.1530,-82.8010,1022.7,1111122 
COMPS,ioos:station:USF.COMPS:FHP:1,2018-01-01T17:00:00Z,28.1530,-82.8010,1022.73,1111122 
COMPS,ioos:station:USF.COMPS:FHP:1,2018-01-01T17:06:00Z,28.1530,-82.8010,1022.74,1111122 
COMPS,ioos:station:USF.COMPS:FHP:1,2018-01-01T17:12:00Z,28.1530,-82.8010,1022.72,1111122 
COMPS,ioos:station:USF.COMPS:FHP:1,2018-01-01T17:18:00Z,28.1530,-82.8010,1022.73,1111122 
COMPS,ioos:station:USF.COMPS:FHP:1,2018-01-01T17:24:00Z,28.1530,-82.8010,1022.46,1111122 
COMPS,ioos:station:USF.COMPS:FHP:1,2018-01-01T17:30:00Z,28.1530,-82.8010,1022.42,1111122 
COMPS,ioos:station:USF.COMPS:FHP:1,2018-01-01T17:36:00Z,28.1530,-82.8010,1022.29,1111122 
COMPS,ioos:station:USF.COMPS:FHP:1,2018-01-01T17:42:00Z,28.1530,-82.8010,1022.1,1111122 
COMPS,ioos:station:USF.COMPS:FHP:1,2018-01-01T17:48:00Z,28.1530,-82.8010,1022.08,1111122 
COMPS,ioos:station:USF.COMPS:FHP:1,2018-01-01T17:54:00Z,28.1530,-82.8010,1022.02,1111122 
COMPS,ioos:station:USF.COMPS:FHP:1,2018-01-01T18:00:00Z,28.1530,-82.8010,1021.82,1111122 
COMPS,ioos:station:USF.COMPS:FHP:1,2018-01-01T18:06:00Z,28.1530,-82.8010,1021.82,1111122 
COMPS,ioos:station:USF.COMPS:FHP:1,2018-01-01T18:12:00Z,28.1530,-82.8010,1021.73,1111122 
COMPS,ioos:station:USF.COMPS:FHP:1,2018-01-01T18:18:00Z,28.1530,-82.8010,1021.8,1111122 
COMPS,ioos:station:USF.COMPS:FHP:1,2018-01-01T18:24:00Z,28.1530,-82.8010,1021.73,1111122 
COMPS,ioos:station:USF.COMPS:FHP:1,2018-01-01T18:30:00Z,28.1530,-82.8010,1021.62,1111122 
COMPS,ioos:station:USF.COMPS:FHP:1,2018-01-01T18:36:00Z,28.1530,-82.8010,1021.62,1111122 
COMPS,ioos:station:USF.COMPS:FHP:1,2018-01-01T18:42:00Z,28.1530,-82.8010,1021.65,1111122 
COMPS,ioos:station:USF.COMPS:FHP:1,2018-01-01T18:48:00Z,28.1530,-82.8010,1021.6,1111122 
COMPS,ioos:station:USF.COMPS:FHP:1,2018-01-01T18:54:00Z,28.1530,-82.8010,1021.81,1111122 
COMPS,ioos:station:USF.COMPS:FHP:1,2018-01-01T19:00:00Z,28.1530,-82.8010,1021.77,1111122 
COMPS,ioos:station:USF.COMPS:FHP:1,2018-01-01T19:06:00Z,28.1530,-82.8010,1021.81,1111122 
COMPS,ioos:station:USF.COMPS:FHP:1,2018-01-01T19:12:00Z,28.1530,-82.8010,1021.84,1111122 
COMPS,ioos:station:USF.COMPS:FHP:1,2018-01-01T19:18:00Z,28.1530,-82.8010,1021.7,1111122 
COMPS,ioos:station:USF.COMPS:FHP:1,2018-01-01T19:24:00Z,28.1530,-82.8010,1021.65,1111122 
COMPS,ioos:station:USF.COMPS:FHP:1,2018-01-01T19:30:00Z,28.1530,-82.8010,1021.77,1111122 
COMPS,ioos:station:USF.COMPS:FHP:1,2018-01-01T19:36:00Z,28.1530,-82.8010,1021.78,1111122 
COMPS,ioos:station:USF.COMPS:FHP:1,2018-01-01T19:42:00Z,28.1530,-82.8010,1021.76,1111122 
COMPS,ioos:station:USF.COMPS:FHP:1,2018-01-01T19:48:00Z,28.1530,-82.8010,1021.9,1111122 
COMPS,ioos:station:USF.COMPS:FHP:1,2018-01-01T19:54:00Z,28.1530,-82.8010,1021.97,1111122 
COMPS,ioos:station:USF.COMPS:FHP:1,2018-01-01T20:00:00Z,28.1530,-82.8010,1021.94,1111122 
COMPS,ioos:station:USF.COMPS:FHP:1,2018-01-01T20:06:00Z,28.1530,-82.8010,1021.8,1111122 
COMPS,ioos:station:USF.COMPS:FHP:1,2018-01-01T20:12:00Z,28.1530,-82.8010,1021.92,1111122 
COMPS,ioos:station:USF.COMPS:FHP:1,2018-01-01T20:18:00Z,28.1530,-82.8010,1022.06,1111122 
COMPS,ioos:station:USF.COMPS:FHP:1,2018-01-01T20:24:00Z,28.1530,-82.8010,1022.09,1111122 
COMPS,ioos:station:USF.COMPS:FHP:1,2018-01-01T20:30:00Z,28.1530,-82.8010,1022.16,1111122 
COMPS,ioos:station:USF.COMPS:FHP:1,2018-01-01T20:36:00Z,28.1530,-82.8010,1022.18,1111122 
COMPS,ioos:station:USF.COMPS:FHP:1,2018-01-01T20:42:00Z,28.1530,-82.8010,1022.36,1111122 
COMPS,ioos:station:USF.COMPS:FHP:1,2018-01-01T20:48:00Z,28.1530,-82.8010,1022.36,1111122 
COMPS,ioos:station:USF.COMPS:FHP:1,2018-01-01T20:54:00Z,28.1530,-82.8010,1022.53,1111122 
COMPS,ioos:station:USF.COMPS:FHP:1,2018-01-01T21:00:00Z,28.1530,-82.8010,1022.64,1111122 
COMPS,ioos:station:USF.COMPS:FHP:1,2018-01-01T21:06:00Z,28.1530,-82.8010,1022.62,1111122 
COMPS,ioos:station:USF.COMPS:FHP:1,2018-01-01T21:12:00Z,28.1530,-82.8010,1022.78,1111122 
COMPS,ioos:station:USF.COMPS:FHP:1,2018-01-01T21:18:00Z,28.1530,-82.8010,1022.7,1111122 
COMPS,ioos:station:USF.COMPS:FHP:1,2018-01-01T21:24:00Z,28.1530,-82.8010,1022.82,1111122 
COMPS,ioos:station:USF.COMPS:FHP:1,2018-01-01T21:30:00Z,28.1530,-82.8010,1022.81,1111122 
COMPS,ioos:station:USF.COMPS:FHP:1,2018-01-01T21:36:00Z,28.1530,-82.8010,1022.86,1111122 
COMPS,ioos:station:USF.COMPS:FHP:1,2018-01-01T21:42:00Z,28.1530,-82.8010,1022.93,1111122 
COMPS,ioos:station:USF.COMPS:FHP:1,2018-01-01T21:48:00Z,28.1530,-82.8010,1022.88,1111122 
COMPS,ioos:station:USF.COMPS:FHP:1,2018-01-01T21:54:00Z,28.1530,-82.8010,1023.09,1111122 
COMPS,ioos:station:USF.COMPS:FHP:1,2018-01-01T22:00:00Z,28.1530,-82.8010,1023.14,1111122 
COMPS,ioos:station:USF.COMPS:FHP:1,2018-01-01T22:06:00Z,28.1530,-82.8010,1023.36,1111122 
COMPS,ioos:station:USF.COMPS:FHP:1,2018-01-01T22:12:00Z,28.1530,-82.8010,1023.38,1111122 
COMPS,ioos:station:USF.COMPS:FHP:1,2018-01-01T22:18:00Z,28.1530,-82.8010,1023.58,1111122 
COMPS,ioos:station:USF.COMPS:FHP:1,2018-01-01T22:24:00Z,28.1530,-82.8010,1023.62,1111122 
COMPS,ioos:station:USF.COMPS:FHP:1,2018-01-01T22:30:00Z,28.1530,-82.8010,1023.72,1111122 
COMPS,ioos:station:USF.COMPS:FHP:1,2018-01-01T22:36:00Z,28.1530,-82.8010,1023.8,1111122 
COMPS,ioos:station:USF.COMPS:FHP:1,2018-01-01T22:42:00Z,28.1530,-82.8010,1023.8,1111122 
COMPS,ioos:station:USF.COMPS:FHP:1,2018-01-01T22:48:00Z,28.1530,-82.8010,1023.88,1111122 
COMPS,ioos:station:USF.COMPS:FHP:1,2018-01-01T22:54:00Z,28.1530,-82.8010,1023.93,1111122 
COMPS,ioos:station:USF.COMPS:FHP:1,2018-01-01T23:00:00Z,28.1530,-82.8010,1024.18,1111122 
COMPS,ioos:station:USF.COMPS:FHP:1,2018-01-01T23:06:00Z,28.1530,-82.8010,1023.92,1111122 
COMPS,ioos:station:USF.COMPS:FHP:1,2018-01-01T23:12:00Z,28.1530,-82.8010,1023.96,1111122 
COMPS,ioos:station:USF.COMPS:FHP:1,2018-01-01T23:18:00Z,28.1530,-82.8010,1023.92,1111122 
COMPS,ioos:station:USF.COMPS:FHP:1,2018-01-01T23:24:00Z,28.1530,-82.8010,1024.12,1111122 
COMPS,ioos:station:USF.COMPS:FHP:1,2018-01-01T23:30:00Z,28.1530,-82.8010,1024.06,1111122 
COMPS,ioos:station:USF.COMPS:FHP:1,2018-01-01T23:36:00Z,28.1530,-82.8010,1024.09,1111122 
COMPS,ioos:station:USF.COMPS:FHP:1,2018-01-01T23:42:00Z,28.1530,-82.8010,1024.29,1111122 
COMPS,ioos:station:USF.COMPS:FHP:1,2018-01-01T23:48:00Z,28.1530,-82.8010,1024.48,1111122 
COMPS,ioos:station:USF.COMPS:FHP:1,2018-01-01T23:54:00Z,28.1530,-82.8010,1024.61,1111122 
COMPS,ioos:station:USF.COMPS:FHP:1,2018-01-02T00:00:00Z,28.1530,-82.8010,1024.85,1111122 
COMPS,ioos:station:USF.COMPS:FHP:1,2018-01-02T00:06:00Z,28.1530,-82.8010,1024.94,1111122 
COMPS,ioos:station:USF.COMPS:FHP:1,2018-01-02T00:12:00Z,28.1530,-82.8010,1025.04,1111122 
COMPS,ioos:station:USF.COMPS:FHP:1,2018-01-02T00:18:00Z,28.1530,-82.8010,1025.08,1111122 
COMPS,ioos:station:USF.COMPS:FHP:1,2018-01-02T00:24:00Z,28.1530,-82.8010,1025.24,1111122 
COMPS,ioos:station:USF.COMPS:FHP:1,2018-01-02T00:30:00Z,28.1530,-82.8010,1025.36,1111122 
COMPS,ioos:station:USF.COMPS:FHP:1,2018-01-02T00:36:00Z,28.1530,-82.8010,1025.32,1111122 
COMPS,ioos:station:USF.COMPS:FHP:1,2018-01-02T00:42:00Z,28.1530,-82.8010,1025.26,1111122 
COMPS,ioos:station:USF.COMPS:FHP:1,2018-01-02T00:48:00Z,28.1530,-82.8010,1025.41,1111122 
COMPS,ioos:station:USF.COMPS:FHP:1,2018-01-02T00:54:00Z,28.1530,-82.8010,1025.44,1111122 
COMPS,ioos:station:USF.COMPS:FHP:1,2018-01-02T01:00:00Z,28.1530,-82.8010,1025.57,1111122 
COMPS,ioos:station:USF.COMPS:FHP:1,2018-01-02T01:06:00Z,28.1530,-82.8010,1025.41,1111122 
COMPS,ioos:station:USF.COMPS:FHP:1,2018-01-02T01:12:00Z,28.1530,-82.8010,1025.5,1111122 
COMPS,ioos:station:USF.COMPS:FHP:1,2018-01-02T01:18:00Z,28.1530,-82.8010,1025.49,1111122 
COMPS,ioos:station:USF.COMPS:FHP:1,2018-01-02T01:24:00Z,28.1530,-82.8010,1025.5,1111122 
COMPS,ioos:station:USF.COMPS:FHP:1,2018-01-02T01:30:00Z,28.1530,-82.8010,1025.42,1111122 
COMPS,ioos:station:USF.COMPS:FHP:1,2018-01-02T01:36:00Z,28.1530,-82.8010,1025.53,1111122 
COMPS,ioos:station:USF.COMPS:FHP:1,2018-01-02T01:42:00Z,28.1530,-82.8010,1025.57,1111122 
COMPS,ioos:station:USF.COMPS:FHP:1,2018-01-02T01:48:00Z,28.1530,-82.8010,1025.54,1111122 
COMPS,ioos:station:USF.COMPS:FHP:1,2018-01-02T01:54:00Z,28.1530,-82.8010,1025.56,1111122 
COMPS,ioos:station:USF.COMPS:FHP:1,2018-01-02T02:00:00Z,28.1530,-82.8010,1025.81,1111122 
COMPS,ioos:station:USF.COMPS:FHP:1,2018-01-02T02:06:00Z,28.1530,-82.8010,1025.85,1111122 
COMPS,ioos:station:USF.COMPS:FHP:1,2018-01-02T02:12:00Z,28.1530,-82.8010,1025.93,1111122 
COMPS,ioos:station:USF.COMPS:FHP:1,2018-01-02T02:18:00Z,28.1530,-82.8010,1025.9,1111122 
COMPS,ioos:station:USF.COMPS:FHP:1,2018-01-02T02:24:00Z,28.1530,-82.8010,1026.04,1111122 
COMPS,ioos:station:USF.COMPS:FHP:1,2018-01-02T02:30:00Z,28.1530,-82.8010,1025.92,1111122 